,,Stat5,,Stat1,,Stat2,,Stat3,,Stat4,,Wind1,,Wind1,
time,status,PA1M_AVG,status,PR1M_SUM,status,RH1M_AVG,status,SR1M_AVG,status,TA1M_AVG,status,W1dAve1m,status,W1sAve1m,
2001-12-14, 00:00:01,VALID,920.18,VALID,0,VALID,98.3261,VALID,0.020377,VALID,19.8195,VALID,12,VALID,0,
2001-12-14, 00:01:00,VALID,920.18,VALID,0,VALID,98.3408,VALID,0.0169808,VALID,19.8098,VALID,9,VALID,0.00253378,
2001-12-14, 00:02:00,VALID,920.174,VALID,0,VALID,98.3306,VALID,0,VALID,19.8101,VALID,355,VALID,0.14383,
2001-12-14, 00:03:00,VALID,920.177,VALID,0,VALID,98.2734,VALID,0,VALID,19.7971,VALID,323,VALID,0.0375845,
2001-12-14, 00:04:00,VALID,920.152,VALID,0,VALID,98.2327,VALID,0,VALID,19.7651,VALID,315,VALID,0.0337171,
2001-12-14, 00:05:00,VALID,920.15,VALID,0,VALID,98.2048,VALID,0.0169808,VALID,19.7519,VALID,312,VALID,0,
2001-12-14, 00:06:00,VALID,920.149,VALID,0,VALID,98.2315,VALID,0.118866,VALID,19.7308,VALID,312,VALID,0.00566406,
2001-12-14, 00:07:00,VALID,920.135,VALID,0,VALID,98.3167,VALID,0.118866,VALID,19.7499,VALID,312,VALID,0.0663061,
2001-12-14, 00:08:00,VALID,920.133,VALID,0,VALID,98.3662,VALID,0.101885,VALID,19.7859,VALID,313,VALID,0.0341283,
2001-12-14, 00:09:00,VALID,920.123,VALID,0,VALID,98.4247,VALID,0.118866,VALID,19.8053,VALID,319,VALID,0.0192454,
2001-12-14, 00:10:00,VALID,920.119,VALID,0,VALID,98.4324,VALID,0.101885,VALID,19.8247,VALID,344,VALID,0.219778,
2001-12-14, 00:11:00,VALID,920.117,VALID,0,VALID,98.4247,VALID,0.118866,VALID,19.8344,VALID,2,VALID,0.283923,
2001-12-14, 00:12:00,VALID,920.122,VALID,0,VALID,98.3459,VALID,0.101885,VALID,19.8051,VALID,357,VALID,0.119358,
2001-12-14, 00:13:00,VALID,920.119,VALID,0,VALID,98.3484,VALID,0.152827,VALID,19.7924,VALID,357,VALID,0.00126689,
2001-12-14, 00:14:00,VALID,920.119,VALID,0,VALID,98.3726,VALID,0.101885,VALID,19.7924,VALID,14,VALID,0.511161,
2001-12-14, 00:15:00,VALID,920.116,VALID,0,VALID,98.3968,VALID,0.118866,VALID,19.7887,VALID,17,VALID,0.527961,
2001-12-14, 00:16:00,VALID,920.101,VALID,0,VALID,98.4018,VALID,0.101885,VALID,19.8018,VALID,16,VALID,0.555954,
2001-12-14, 00:17:00,VALID,920.096,VALID,0,VALID,98.4171,VALID,0.101885,VALID,19.7986,VALID,15,VALID,0.1875,
2001-12-14, 00:18:00,VALID,920.087,VALID,0,VALID,98.4603,VALID,0.135847,VALID,19.8021,VALID,15,VALID,0.0168919,
2001-12-14, 00:19:00,VALID,920.068,VALID,0,VALID,98.4705,VALID,0.118866,VALID,19.8178,VALID,15,VALID,0.00078125,
2001-12-14, 00:20:00,VALID,920.046,VALID,0,VALID,98.4171,VALID,0.118866,VALID,19.8051,VALID,13,VALID,0.3125,
2001-12-14, 00:21:00,VALID,920.028,VALID,0,VALID,98.4171,VALID,0,VALID,19.8004,VALID,13,VALID,0.491753,
2001-12-14, 00:22:00,VALID,920.01,VALID,0,VALID,98.4832,VALID,0,VALID,19.8098,VALID,14,VALID,0.248264,
2001-12-14, 00:23:00,VALID,919.999,VALID,0,VALID,98.4845,VALID,0.0169808,VALID,19.8192,VALID,14,VALID,0.11986,
2001-12-14, 00:24:00,VALID,919.981,VALID,0,VALID,98.4616,VALID,-0.0169808,VALID,19.8128,VALID,15,VALID,0.320536,
2001-12-14, 00:25:00,VALID,919.964,VALID,0,VALID,98.4018,VALID,-0.0169808,VALID,19.8004,VALID,10,VALID,0.398633,
2001-12-14, 00:26:00,VALID,919.952,VALID,0,VALID,98.3688,VALID,0,VALID,19.7713,VALID,12,VALID,0.555889,
2001-12-14, 00:27:00,VALID,919.927,VALID,0,VALID,98.3612,VALID,0.0169808,VALID,19.7551,VALID,8,VALID,0.549342,
2001-12-14, 00:28:00,VALID,919.902,VALID,0,VALID,98.3828,VALID,0.0169808,VALID,19.7549,VALID,6,VALID,0.247327,
2001-12-14, 00:29:00,VALID,919.879,VALID,0,VALID,98.384,VALID,0,VALID,19.739,VALID,21,VALID,0.376758,
2001-12-14, 00:30:00,VALID,919.859,VALID,0,VALID,98.4095,VALID,0.0169808,VALID,19.7454,VALID,23,VALID,0.471423,
2001-12-14, 00:31:00,VALID,919.838,VALID,0,VALID,98.4387,VALID,0,VALID,19.7417,VALID,24,VALID,0.287829,
2001-12-14, 00:32:00,VALID,919.82,VALID,0,VALID,98.4692,VALID,0,VALID,19.7648,VALID,24,VALID,0.362965,
2001-12-14, 00:33:00,VALID,919.81,VALID,0,VALID,98.482,VALID,0.0169808,VALID,19.7713,VALID,22,VALID,0.390625,
2001-12-14, 00:34:00,VALID,919.8,VALID,0,VALID,98.487,VALID,0,VALID,19.7641,VALID,21,VALID,0.190625,
2001-12-14, 00:35:00,VALID,919.793,VALID,0,VALID,98.4883,VALID,-0.0169808,VALID,19.7748,VALID,21,VALID,0,
2001-12-14, 00:36:00,VALID,919.778,VALID,0,VALID,98.4273,VALID,-0.101885,VALID,19.7464,VALID,21,VALID,0.000844595,
2001-12-14, 00:37:00,VALID,919.772,VALID,0,VALID,98.3586,VALID,-0.0849042,VALID,19.7179,VALID,21,VALID,0.0118243,
2001-12-14, 00:38:00,VALID,919.771,VALID,0,VALID,98.3853,VALID,-0.101885,VALID,19.6945,VALID,21,VALID,0,
2001-12-14, 00:39:00,VALID,919.747,VALID,0,VALID,98.4057,VALID,-0.101885,VALID,19.6878,VALID,21,VALID,0,
2001-12-14, 00:40:00,VALID,919.737,VALID,0,VALID,98.4209,VALID,-0.101885,VALID,19.6883,VALID,21,VALID,0.0594161,
2001-12-14, 00:41:00,VALID,919.73,VALID,0,VALID,98.4642,VALID,-0.0849042,VALID,19.7079,VALID,21,VALID,0.620683,
2001-12-14, 00:42:00,VALID,919.712,VALID,0,VALID,98.4743,VALID,-0.0849042,VALID,19.7176,VALID,26,VALID,0.668837,
2001-12-14, 00:43:00,VALID,919.674,VALID,0,VALID,98.4998,VALID,-0.0849042,VALID,19.7335,VALID,16,VALID,0.844806,
2001-12-14, 00:44:00,VALID,919.652,VALID,0,VALID,98.454,VALID,0,VALID,19.7199,VALID,16,VALID,0.802009,
2001-12-14, 00:45:00,VALID,919.614,VALID,0,VALID,98.4247,VALID,0,VALID,19.7072,VALID,21,VALID,0.776933,
2001-12-14, 00:46:00,VALID,919.602,VALID,0,VALID,98.3891,VALID,0,VALID,19.6846,VALID,16,VALID,0.733742,
2001-12-14, 00:47:00,VALID,919.578,VALID,0,VALID,98.4235,VALID,-0.0339617,VALID,19.6749,VALID,16,VALID,0.532072,
2001-12-14, 00:48:00,VALID,919.574,VALID,0,VALID,98.4387,VALID,0,VALID,19.6647,VALID,16,VALID,0.429265,
2001-12-14, 00:49:00,VALID,919.567,VALID,0,VALID,98.3802,VALID,0,VALID,19.6418,VALID,11,VALID,0.502734,
2001-12-14, 00:50:00,VALID,919.548,VALID,0,VALID,98.3459,VALID,0,VALID,19.6162,VALID,4,VALID,0.531044,
2001-12-14, 00:51:00,VALID,919.523,VALID,0,VALID,98.3141,VALID,0,VALID,19.5904,VALID,12,VALID,0.477431,
2001-12-14, 00:52:00,VALID,919.523,VALID,0,VALID,98.3701,VALID,0,VALID,19.5911,VALID,357,VALID,0.491536,
2001-12-14, 00:53:00,VALID,919.517,VALID,0,VALID,98.3408,VALID,0.0169808,VALID,19.5678,VALID,358,VALID,0.26727,
2001-12-14, 00:54:00,VALID,919.509,VALID,0,VALID,98.3586,VALID,0,VALID,19.5454,VALID,8,VALID,0.194866,
2001-12-14, 00:55:00,VALID,919.502,VALID,0,VALID,98.4222,VALID,0,VALID,19.5551,VALID,12,VALID,0.411523,
2001-12-14, 00:56:00,VALID,919.492,VALID,0,VALID,98.454,VALID,0,VALID,19.5583,VALID,13,VALID,0.047476,
2001-12-14, 00:57:00,VALID,919.475,VALID,0,VALID,98.5087,VALID,0,VALID,19.5809,VALID,13,VALID,0,
2001-12-14, 00:58:00,VALID,919.474,VALID,0,VALID,98.5227,VALID,0.0169808,VALID,19.5904,VALID,13,VALID,0,
2001-12-14, 00:59:00,VALID,919.463,VALID,0,VALID,98.5176,VALID,0,VALID,19.5936,VALID,13,VALID,0,
2001-12-14, 01:00:00,VALID,919.452,VALID,0,VALID,98.482,VALID,-0.0169808,VALID,19.5879,VALID,13,VALID,0,
2001-12-14, 01:01:00,VALID,919.427,VALID,0,VALID,98.4616,VALID,-0.0169808,VALID,19.5683,VALID,13,VALID,0,
2001-12-14, 01:02:00,VALID,919.416,VALID,0,VALID,98.4413,VALID,0,VALID,19.5583,VALID,13,VALID,0,
2001-12-14, 01:03:00,VALID,919.412,VALID,0,VALID,98.4642,VALID,0,VALID,19.5385,VALID,13,VALID,0,
2001-12-14, 01:04:00,VALID,919.407,VALID,0,VALID,98.4743,VALID,-0.0169808,VALID,19.5422,VALID,13,VALID,0,
2001-12-14, 01:05:00,VALID,919.399,VALID,0,VALID,98.4705,VALID,-0.0169808,VALID,19.5196,VALID,13,VALID,0,
2001-12-14, 01:06:00,VALID,919.378,VALID,0,VALID,98.4375,VALID,-0.0849042,VALID,19.5141,VALID,354,VALID,0.0401182,
2001-12-14, 01:07:00,VALID,919.373,VALID,0,VALID,98.4286,VALID,-0.0849042,VALID,19.5111,VALID,259,VALID,0.0217483,
2001-12-14, 01:08:00,VALID,919.355,VALID,0,VALID,98.4375,VALID,-0.101885,VALID,19.4945,VALID,216,VALID,0.0104852,
2001-12-14, 01:09:00,VALID,919.34,VALID,0,VALID,98.4514,VALID,-0.0849042,VALID,19.5176,VALID,203,VALID,0.000190549,
2001-12-14, 01:10:00,VALID,919.331,VALID,0,VALID,98.4591,VALID,-0.0679233,VALID,19.5114,VALID,199,VALID,0.108758,
2001-12-14, 01:11:00,VALID,919.303,VALID,0,VALID,98.4629,VALID,-0.0849042,VALID,19.5208,VALID,199,VALID,0.0705181,
2001-12-14, 01:12:00,VALID,919.299,VALID,0,VALID,98.4718,VALID,-0.0849042,VALID,19.5109,VALID,199,VALID,0,
2001-12-14, 01:13:00,VALID,919.283,VALID,0,VALID,98.4667,VALID,-0.0679233,VALID,19.5146,VALID,199,VALID,0,
2001-12-14, 01:14:00,VALID,919.263,VALID,0,VALID,98.4807,VALID,-0.0849042,VALID,19.5208,VALID,199,VALID,0,
2001-12-14, 01:15:00,VALID,919.232,VALID,0,VALID,98.4654,VALID,-0.0849042,VALID,19.5243,VALID,199,VALID,0,
2001-12-14, 01:16:00,VALID,919.22,VALID,0,VALID,98.4756,VALID,-0.0849042,VALID,19.5245,VALID,199,VALID,0,
2001-12-14, 01:17:00,VALID,919.216,VALID,0,VALID,98.4718,VALID,-0.0849042,VALID,19.524,VALID,199,VALID,0,
2001-12-14, 01:18:00,VALID,919.206,VALID,0,VALID,98.4947,VALID,-0.0849042,VALID,19.5377,VALID,199,VALID,0,
2001-12-14, 01:19:00,VALID,919.217,VALID,0,VALID,98.4807,VALID,-0.0849042,VALID,19.5402,VALID,199,VALID,0,
2001-12-14, 01:20:00,VALID,919.217,VALID,0,VALID,98.4896,VALID,-0.101885,VALID,19.5407,VALID,199,VALID,0,
2001-12-14, 01:21:00,VALID,919.217,VALID,0,VALID,98.4553,VALID,-0.0849042,VALID,19.5173,VALID,199,VALID,0.0243056,
2001-12-14, 01:22:00,VALID,919.21,VALID,0,VALID,98.4349,VALID,-0.0679233,VALID,19.5173,VALID,199,VALID,0.227865,
2001-12-14, 01:23:00,VALID,919.193,VALID,0,VALID,98.4387,VALID,-0.0679233,VALID,19.5243,VALID,196,VALID,0.158306,
2001-12-14, 01:24:00,VALID,919.187,VALID,0,VALID,98.4018,VALID,-0.0679233,VALID,19.5017,VALID,200,VALID,0.318304,
2001-12-14, 01:25:00,VALID,919.183,VALID,0,VALID,98.3751,VALID,-0.0679233,VALID,19.492,VALID,203,VALID,0.280664,
2001-12-14, 01:26:00,VALID,919.182,VALID,0,VALID,98.3446,VALID,-0.101885,VALID,19.4793,VALID,204,VALID,0.423678,
2001-12-14, 01:27:00,VALID,919.173,VALID,0,VALID,98.3459,VALID,-0.101885,VALID,19.4664,VALID,193,VALID,0.258018,
2001-12-14, 01:28:00,VALID,919.178,VALID,0,VALID,98.3344,VALID,-0.101885,VALID,19.4562,VALID,202,VALID,0.440584,
2001-12-14, 01:29:00,VALID,919.161,VALID,0,VALID,98.3243,VALID,-0.101885,VALID,19.4562,VALID,210,VALID,0.108984,
2001-12-14, 01:30:00,VALID,919.147,VALID,0,VALID,98.3294,VALID,-0.0849042,VALID,19.4661,VALID,227,VALID,0.191817,
2001-12-14, 01:31:00,VALID,919.13,VALID,0,VALID,98.2887,VALID,-0.101885,VALID,19.4694,VALID,224,VALID,0.460115,
2001-12-14, 01:32:00,VALID,919.134,VALID,0,VALID,98.2467,VALID,-0.0849042,VALID,19.4564,VALID,240,VALID,0.886191,
2001-12-14, 01:33:00,VALID,919.111,VALID,0,VALID,98.1984,VALID,-0.0679233,VALID,19.4532,VALID,227,VALID,0.717014,
2001-12-14, 01:34:00,VALID,919.097,VALID,0,VALID,98.178,VALID,-0.0849042,VALID,19.4532,VALID,222,VALID,0.545759,
2001-12-14, 01:35:00,VALID,919.084,VALID,0,VALID,98.1641,VALID,-0.0849042,VALID,19.453,VALID,241,VALID,0.565848,
2001-12-14, 01:36:00,VALID,919.057,VALID,0,VALID,98.1552,VALID,0.0169808,VALID,19.4681,VALID,242,VALID,0.504645,
2001-12-14, 01:37:00,VALID,919.021,VALID,0,VALID,98.1437,VALID,0,VALID,19.4684,VALID,226,VALID,0.266258,
2001-12-14, 01:38:00,VALID,919.011,VALID,0,VALID,98.131,VALID,0.0169808,VALID,19.4649,VALID,233,VALID,0.38199,
2001-12-14, 01:39:00,VALID,918.98,VALID,0,VALID,98.131,VALID,0.0169808,VALID,19.455,VALID,239,VALID,0.137195,
2001-12-14, 01:40:00,VALID,918.972,VALID,0,VALID,98.1564,VALID,0,VALID,19.4617,VALID,239,VALID,0.0320724,
2001-12-14, 01:41:00,VALID,918.95,VALID,0,VALID,98.173,VALID,0,VALID,19.4619,VALID,239,VALID,0,
2001-12-14, 01:42:00,VALID,918.932,VALID,0,VALID,98.1755,VALID,0,VALID,19.4557,VALID,239,VALID,0.000868056,
2001-12-14, 01:43:00,VALID,918.909,VALID,0,VALID,98.2213,VALID,0,VALID,19.4714,VALID,347,VALID,0.295819,
2001-12-14, 01:44:00,VALID,918.891,VALID,0,VALID,98.2505,VALID,0,VALID,19.4781,VALID,10,VALID,0.408482,
2001-12-14, 01:45:00,VALID,918.868,VALID,0,VALID,98.2518,VALID,0,VALID,19.4808,VALID,23,VALID,0.626234,
2001-12-14, 01:46:00,VALID,918.844,VALID,0,VALID,98.2518,VALID,0,VALID,19.4676,VALID,35,VALID,0.720017,
2001-12-14, 01:47:00,VALID,918.835,VALID,0,VALID,98.248,VALID,0.0169808,VALID,19.4718,VALID,26,VALID,0.47759,
2001-12-14, 01:48:00,VALID,918.817,VALID,0,VALID,98.2505,VALID,0.0169808,VALID,19.4617,VALID,25,VALID,0.317145,
2001-12-14, 01:49:00,VALID,918.803,VALID,0,VALID,98.2823,VALID,0.0679233,VALID,19.4617,VALID,25,VALID,0.203711,
2001-12-14, 01:50:00,VALID,918.788,VALID,0,VALID,98.3383,VALID,0.0169808,VALID,19.4547,VALID,25,VALID,0.28824,
2001-12-14, 01:51:00,VALID,918.784,VALID,0,VALID,98.337,VALID,0.0169808,VALID,19.4579,VALID,25,VALID,0.259332,
2001-12-14, 01:52:00,VALID,918.771,VALID,0,VALID,98.3662,VALID,0.0169808,VALID,19.4584,VALID,25,VALID,0.0859375,
2001-12-14, 01:53:00,VALID,918.765,VALID,0,VALID,98.3929,VALID,0,VALID,19.4711,VALID,25,VALID,0.156867,
2001-12-14, 01:54:00,VALID,918.755,VALID,0,VALID,98.3955,VALID,0.0509425,VALID,19.4517,VALID,24,VALID,0.214286,
2001-12-14, 01:55:00,VALID,918.737,VALID,0,VALID,98.3879,VALID,0.0339617,VALID,19.442,VALID,20,VALID,0.273047,
2001-12-14, 01:56:00,VALID,918.718,VALID,0,VALID,98.3535,VALID,0.0849042,VALID,19.4256,VALID,18,VALID,0.303886,
2001-12-14, 01:57:00,VALID,918.708,VALID,0,VALID,98.3434,VALID,0.0509425,VALID,19.4162,VALID,18,VALID,0.195518,
2001-12-14, 01:58:00,VALID,918.691,VALID,0,VALID,98.3332,VALID,0,VALID,19.4038,VALID,18,VALID,0.304482,
2001-12-14, 01:59:00,VALID,918.666,VALID,0,VALID,98.365,VALID,0.0169808,VALID,19.374,VALID,18,VALID,0.455078,
2001-12-14, 02:00:00,VALID,918.655,VALID,0,VALID,98.4146,VALID,0,VALID,19.4005,VALID,18,VALID,0.644942,
2001-12-14, 02:01:00,VALID,918.639,VALID,0,VALID,98.4489,VALID,0.0339617,VALID,19.4035,VALID,19,VALID,0.644326,
2001-12-14, 02:02:00,VALID,918.621,VALID,0,VALID,98.454,VALID,0,VALID,19.4,VALID,24,VALID,0.78674,
2001-12-14, 02:03:00,VALID,918.604,VALID,0,VALID,98.4629,VALID,0.0679233,VALID,19.3901,VALID,21,VALID,0.787109,
2001-12-14, 02:04:00,VALID,918.583,VALID,0,VALID,98.4794,VALID,0.0339617,VALID,19.3869,VALID,15,VALID,1.01071,
2001-12-14, 02:05:00,VALID,918.554,VALID,0,VALID,98.4959,VALID,0.0509425,VALID,19.3901,VALID,17,VALID,1.10361,
2001-12-14, 02:06:00,VALID,918.562,VALID,0,VALID,98.4731,VALID,-0.0169808,VALID,19.3615,VALID,10,VALID,1.01563,
2001-12-14, 02:07:00,VALID,918.538,VALID,0,VALID,98.4883,VALID,0,VALID,19.3486,VALID,9,VALID,0.774704,
2001-12-14, 02:08:00,VALID,918.537,VALID,0,VALID,98.5087,VALID,-0.0169808,VALID,19.3424,VALID,354,VALID,0.636308,
2001-12-14, 02:09:00,VALID,918.534,VALID,0,VALID,98.543,VALID,-0.0339617,VALID,19.3424,VALID,351,VALID,0.428354,
2001-12-14, 02:10:00,VALID,918.521,VALID,0,VALID,98.5417,VALID,0,VALID,19.3325,VALID,347,VALID,0.468544,
2001-12-14, 02:11:00,VALID,918.492,VALID,0,VALID,98.5379,VALID,0.0169808,VALID,19.323,VALID,344,VALID,0.199836,
2001-12-14, 02:12:00,VALID,918.491,VALID,0,VALID,98.5939,VALID,-0.0169808,VALID,19.3292,VALID,344,VALID,0.295573,
2001-12-14, 02:13:00,VALID,918.476,VALID,0,VALID,98.6155,VALID,0,VALID,19.3422,VALID,344,VALID,0.145481,
2001-12-14, 02:14:00,VALID,918.478,VALID,0,VALID,98.6358,VALID,0.0169808,VALID,19.3491,VALID,357,VALID,0.0453125,
2001-12-14, 02:15:00,VALID,918.468,VALID,0,VALID,98.6447,VALID,-0.0339617,VALID,19.3459,VALID,21,VALID,0.365748,
2001-12-14, 02:16:00,VALID,918.459,VALID,0,VALID,98.6498,VALID,-0.0169808,VALID,19.3625,VALID,20,VALID,0.320101,
2001-12-14, 02:17:00,VALID,918.45,VALID,0,VALID,98.6358,VALID,0,VALID,19.3553,VALID,16,VALID,0.047903,
2001-12-14, 02:18:00,VALID,918.44,VALID,0,VALID,98.618,VALID,-0.0339617,VALID,19.3426,VALID,347,VALID,0.166174,
2001-12-14, 02:19:00,VALID,918.425,VALID,0,VALID,98.6167,VALID,-0.0339617,VALID,19.3332,VALID,311,VALID,0.308789,
2001-12-14, 02:20:00,VALID,918.4,VALID,0,VALID,98.6053,VALID,0,VALID,19.3329,VALID,328,VALID,0.510074,
2001-12-14, 02:21:00,VALID,918.384,VALID,0,VALID,98.6104,VALID,0.0849042,VALID,19.3347,VALID,2,VALID,0.816406,
2001-12-14, 02:22:00,VALID,918.362,VALID,0,VALID,98.585,VALID,0.0679233,VALID,19.3543,VALID,14,VALID,0.935764,
2001-12-14, 02:23:00,VALID,918.343,VALID,0,VALID,98.5913,VALID,0.101885,VALID,19.3514,VALID,17,VALID,0.936883,
2001-12-14, 02:24:00,VALID,918.317,VALID,0,VALID,98.5646,VALID,0.0339617,VALID,19.3447,VALID,5,VALID,0.792188,
2001-12-14, 02:25:00,VALID,918.3,VALID,0,VALID,98.5303,VALID,0.0509425,VALID,19.335,VALID,9,VALID,0.783789,
2001-12-14, 02:26:00,VALID,918.288,VALID,0,VALID,98.4883,VALID,0.0849042,VALID,19.3287,VALID,8,VALID,1.0613,
2001-12-14, 02:27:00,VALID,918.266,VALID,0,VALID,98.4667,VALID,0.101885,VALID,19.3223,VALID,16,VALID,1.35033,
2001-12-14, 02:28:00,VALID,918.261,VALID,0,VALID,98.4286,VALID,0.0679233,VALID,19.3156,VALID,17,VALID,1.0109,
2001-12-14, 02:29:00,VALID,918.249,VALID,0,VALID,98.379,VALID,0.0849042,VALID,19.3218,VALID,345,VALID,0.79043,
2001-12-14, 02:30:00,VALID,918.244,VALID,0,VALID,98.3027,VALID,0.0509425,VALID,19.3191,VALID,344,VALID,0.803248,
2001-12-14, 02:31:00,VALID,918.24,VALID,0,VALID,98.2734,VALID,0.0509425,VALID,19.322,VALID,353,VALID,0.0984786,
2001-12-14, 02:32:00,VALID,918.233,VALID,0,VALID,98.2645,VALID,0.0679233,VALID,19.3479,VALID,332,VALID,0.0238598,
2001-12-14, 02:33:00,VALID,918.23,VALID,0,VALID,98.2645,VALID,0.0849042,VALID,19.3573,VALID,332,VALID,0.174913,
2001-12-14, 02:34:00,VALID,918.219,VALID,0,VALID,98.2607,VALID,0.101885,VALID,19.3476,VALID,315,VALID,0.385938,
2001-12-14, 02:35:00,VALID,918.207,VALID,0,VALID,98.2823,VALID,0.0679233,VALID,19.3447,VALID,315,VALID,0.0569196,
2001-12-14, 02:36:00,VALID,918.199,VALID,0,VALID,98.3065,VALID,0,VALID,19.3459,VALID,318,VALID,0.00126689,
2001-12-14, 02:37:00,VALID,918.196,VALID,0,VALID,98.3484,VALID,0,VALID,19.3486,VALID,342,VALID,0.00802365,
2001-12-14, 02:38:00,VALID,918.175,VALID,0,VALID,98.3751,VALID,0,VALID,19.3491,VALID,359,VALID,0,
2001-12-14, 02:39:00,VALID,918.168,VALID,0,VALID,98.398,VALID,0,VALID,19.3593,VALID,1,VALID,0,
2001-12-14, 02:40:00,VALID,918.157,VALID,0,VALID,98.4133,VALID,-0.0169808,VALID,19.3295,VALID,312,VALID,0,
2001-12-14, 02:41:00,VALID,918.154,VALID,0,VALID,98.4349,VALID,0,VALID,19.3362,VALID,288,VALID,0,
2001-12-14, 02:42:00,VALID,918.148,VALID,0,VALID,98.4375,VALID,-0.0339617,VALID,19.3233,VALID,288,VALID,0,
2001-12-14, 02:43:00,VALID,918.122,VALID,0,VALID,98.4731,VALID,-0.0339617,VALID,19.3073,VALID,330,VALID,0,
2001-12-14, 02:44:00,VALID,918.139,VALID,0,VALID,98.4375,VALID,0,VALID,19.2905,VALID,329,VALID,0.354688,
2001-12-14, 02:45:00,VALID,918.127,VALID,0,VALID,98.4324,VALID,0,VALID,19.2942,VALID,339,VALID,0.339433,
2001-12-14, 02:46:00,VALID,918.123,VALID,0,VALID,98.4413,VALID,0,VALID,19.2778,VALID,339,VALID,0.103252,
2001-12-14, 02:47:00,VALID,918.122,VALID,0,VALID,98.4743,VALID,-0.0169808,VALID,19.2907,VALID,339,VALID,0.0078125,
2001-12-14, 02:48:00,VALID,918.123,VALID,0,VALID,98.5328,VALID,-0.0339617,VALID,19.3103,VALID,339,VALID,0,
2001-12-14, 02:49:00,VALID,918.124,VALID,0,VALID,98.5506,VALID,-0.0169808,VALID,19.3205,VALID,339,VALID,0,
2001-12-14, 02:50:00,VALID,918.136,VALID,0,VALID,98.571,VALID,-0.0339617,VALID,19.3133,VALID,339,VALID,0,
2001-12-14, 02:51:00,VALID,918.114,VALID,0,VALID,98.5532,VALID,0,VALID,19.324,VALID,351,VALID,0.364583,
2001-12-14, 02:52:00,VALID,918.119,VALID,0,VALID,98.5036,VALID,0,VALID,19.2942,VALID,332,VALID,0.172526,
2001-12-14, 02:53:00,VALID,918.122,VALID,0,VALID,98.5417,VALID,-0.0339617,VALID,19.2977,VALID,345,VALID,0.17352,
2001-12-14, 02:54:00,VALID,918.13,VALID,0,VALID,98.5392,VALID,0,VALID,19.3237,VALID,3,VALID,0.364732,
2001-12-14, 02:55:00,VALID,918.12,VALID,0,VALID,98.4794,VALID,-0.0169808,VALID,19.3198,VALID,5,VALID,0.806641,
2001-12-14, 02:56:00,VALID,918.121,VALID,0,VALID,98.44,VALID,-0.0169808,VALID,19.3071,VALID,12,VALID,0.485176,
2001-12-14, 02:57:00,VALID,918.106,VALID,0,VALID,98.4438,VALID,0,VALID,19.3163,VALID,350,VALID,0.381168,
2001-12-14, 02:58:00,VALID,918.112,VALID,0,VALID,98.4196,VALID,-0.0169808,VALID,19.3265,VALID,347,VALID,0.136308,
2001-12-14, 02:59:00,VALID,918.103,VALID,0,VALID,98.3739,VALID,-0.0169808,VALID,19.33,VALID,340,VALID,0.0140625,
2001-12-14, 03:00:00,VALID,918.101,VALID,0,VALID,98.3497,VALID,-0.0169808,VALID,19.3066,VALID,339,VALID,0.116571,
2001-12-14, 03:01:00,VALID,918.094,VALID,0,VALID,98.3586,VALID,0,VALID,19.32,VALID,1,VALID,0.369038,
2001-12-14, 03:02:00,VALID,918.089,VALID,0,VALID,98.3421,VALID,-0.0339617,VALID,19.3198,VALID,1,VALID,0.896748,
2001-12-14, 03:03:00,VALID,918.078,VALID,0,VALID,98.3217,VALID,-0.0169808,VALID,19.3237,VALID,16,VALID,0.698134,
2001-12-14, 03:04:00,VALID,918.085,VALID,0,VALID,98.3167,VALID,0.0169808,VALID,19.3367,VALID,351,VALID,0.105357,
2001-12-14, 03:05:00,VALID,918.074,VALID,0,VALID,98.3141,VALID,0,VALID,19.3367,VALID,322,VALID,0.0745908,
2001-12-14, 03:06:00,VALID,918.06,VALID,0,VALID,98.3332,VALID,0,VALID,19.3362,VALID,315,VALID,0.0293497,
2001-12-14, 03:07:00,VALID,918.044,VALID,0,VALID,98.3904,VALID,0,VALID,19.3556,VALID,9,VALID,0.704181,
2001-12-14, 03:08:00,VALID,918.035,VALID,0,VALID,98.3675,VALID,0,VALID,19.359,VALID,355,VALID,0.273643,
2001-12-14, 03:09:00,VALID,918.018,VALID,0,VALID,98.3853,VALID,0,VALID,19.3682,VALID,358,VALID,0.157584,
2001-12-14, 03:10:00,VALID,918.025,VALID,0,VALID,98.3777,VALID,-0.0169808,VALID,19.3652,VALID,351,VALID,0.326322,
2001-12-14, 03:11:00,VALID,918.025,VALID,0,VALID,98.3701,VALID,0,VALID,19.3518,VALID,1,VALID,0.452919,
2001-12-14, 03:12:00,VALID,918.008,VALID,0,VALID,98.3586,VALID,0,VALID,19.359,VALID,14,VALID,0.987847,
2001-12-14, 03:13:00,VALID,917.993,VALID,0,VALID,98.337,VALID,-0.0169808,VALID,19.3491,VALID,9,VALID,0.758446,
2001-12-14, 03:14:00,VALID,917.984,VALID,0,VALID,98.3319,VALID,-0.0169808,VALID,19.3491,VALID,324,VALID,0.506027,
2001-12-14, 03:15:01,VALID,917.983,VALID,0,VALID,98.2772,VALID,-0.0169808,VALID,19.3431,VALID,331,VALID,0.579975,
2001-12-14, 03:16:00,VALID,917.978,VALID,0,VALID,98.2442,VALID,0,VALID,19.3362,VALID,353,VALID,0.516892,
2001-12-14, 03:17:01,VALID,917.969,VALID,0,VALID,98.2365,VALID,-0.0169808,VALID,19.3466,VALID,2,VALID,0.515625,
2001-12-14, 03:18:00,VALID,917.971,VALID,0,VALID,98.2671,VALID,0.0169808,VALID,19.3521,VALID,13,VALID,0.708404,
2001-12-14, 03:19:00,VALID,917.954,VALID,0,VALID,98.2721,VALID,0.0169808,VALID,19.3652,VALID,4,VALID,1.12773,
2001-12-14, 03:20:00,VALID,917.938,VALID,0,VALID,98.2149,VALID,0,VALID,19.3523,VALID,8,VALID,1.22574,
2001-12-14, 03:21:00,VALID,917.913,VALID,0,VALID,98.1895,VALID,0,VALID,19.3657,VALID,10,VALID,1.21246,
2001-12-14, 03:22:01,VALID,917.914,VALID,0,VALID,98.1475,VALID,0,VALID,19.369,VALID,318,VALID,0.916667,
2001-12-14, 03:23:00,VALID,917.914,VALID,0,VALID,98.1361,VALID,0,VALID,19.3588,VALID,312,VALID,0.346217,
2001-12-14, 03:24:00,VALID,917.92,VALID,0,VALID,98.1526,VALID,0,VALID,19.3613,VALID,327,VALID,0.140179,
2001-12-14, 03:25:00,VALID,917.925,VALID,0,VALID,98.1831,VALID,0,VALID,19.3779,VALID,20,VALID,0.579492,
2001-12-14, 03:26:00,VALID,917.921,VALID,0,VALID,98.2111,VALID,0,VALID,19.3814,VALID,29,VALID,0.439904,
2001-12-14, 03:27:00,VALID,917.905,VALID,0,VALID,98.2709,VALID,0,VALID,19.3976,VALID,30,VALID,0.595395,
2001-12-14, 03:28:00,VALID,917.896,VALID,0,VALID,98.2721,VALID,0,VALID,19.3943,VALID,21,VALID,0.688528,
2001-12-14, 03:29:01,VALID,917.906,VALID,0,VALID,98.248,VALID,0,VALID,19.3881,VALID,2,VALID,1.17949,
2001-12-14, 03:30:00,VALID,917.917,VALID,0,VALID,98.1628,VALID,0,VALID,19.3558,VALID,350,VALID,1.29256,
2001-12-14, 03:31:01,VALID,917.916,VALID,0,VALID,98.1552,VALID,0.0169808,VALID,19.3657,VALID,357,VALID,1.26419,
2001-12-14, 03:32:00,VALID,917.912,VALID,0,VALID,98.1234,VALID,0,VALID,19.3422,VALID,15,VALID,1.36719,
2001-12-14, 03:33:00,VALID,917.914,VALID,0,VALID,98.1602,VALID,0,VALID,19.3618,VALID,19,VALID,1.1428,
2001-12-14, 03:34:01,VALID,917.915,VALID,0,VALID,98.1666,VALID,0.0339617,VALID,19.3712,VALID,358,VALID,1.12835,
2001-12-14, 03:35:01,VALID,917.913,VALID,0,VALID,98.1272,VALID,0,VALID,19.3752,VALID,349,VALID,1.38672,
2001-12-14, 03:36:00,VALID,917.899,VALID,0,VALID,98.103,VALID,0,VALID,19.3752,VALID,12,VALID,1.23628,